Погода в Тит-Арах

Россия / Республика Саха (Якутия)     62°45′17″N   131°57′33″E
темп.,
°C
ветер,
м/с
пор.,
м/с
влажн.,
%
обл.,
%
осадки,
мм/ч
давл.,
гПа
погр.,
м
13 мая, чт
чт1300:00+3сз2390100 0.0 100946
03:00+2сз2587100 0.0 1009138
06:00+3с2380100 0.0 1009199
09:00+8ссз2358100 0.0 1009812
12:00+11сз2334100 0.0 10091542
15:00+12сз332794 0.0 10081929
18:00+11ссз223052 0.0 10091905
21:00+5с375589 0.0 1011131
14 мая, пт
пт1400:00+2всв2271100 0.0 101229
03:00+1в2276100 0.0 101318
06:00+4в1259100 0.0 1013172
09:00+9в114267 0.0 1013915
12:00+13вюв01335 0.0 10111801
15:00+14ссз01295 0.0 10102185
18:00+13с003068 0.0 10102269
21:00+8зсз114983 0.0 101020
15 мая, сб
сб1500:00+5всв1158100 0.0 101021
03:00+6ююв2458100 0.0 1010102
06:00+7юз245797 0.0 1009181
09:00+11ююв2247100 0.0 10091574
12:00+12ююв124495 0.1 10081753
15:00+12вюв114191 0.3 10071776
18:00+12вюв333913 0.0 10071676
21:00+7вюв48670 0.0 1008306
16 мая, вс
вс1600:00+3в26945 0.0 1009137
03:00+2вюв239815 0.0 100869
06:00+6в24814 0.0 1008270
09:00+11вюв355253 0.0 10061515
12:00+11юв5653100 0.0 10061518
15:00+10ююв4657100 0.0 10051158
18:00+9ююв4768100 0.0 1005969
21:00+7юв4975100 0.0 1005621
17 мая, пн
пн1700:00+7юв3868100 0.0 1004572
03:00+5юв31065100 0.0 1004535
06:00+6юв31060100 0.0 1003686
09:00+9юв5847100 0.0 10021349
12:00+10юв5849100 0.0 10011723
15:00+10юв4749100 0.1 10001745
18:00+11юв2646100 0.0 10001709
21:00+7в2261100 0.0 100032